Location: Parc des �les de St-Timoth�e
(45.2924°N, 74.0481°W)
Time: 07:54:21
(UTC-04:00)

ISS - All Passes

Search period start: 30 August 2015 00:00
Search period end: 09 September 2015 00:00
Orbit: 399 x 401 km, 51.6° (Epoch: 30 August)

Date Brightness Start Highest point End Pass type
(mag) Time Alt. Az. Time Alt. Az. Time Alt. Az.
30 Aug - 09:18:09 10° S 09:20:25 18° SE 09:22:46 10° E daylight
30 Aug - 10:53:17 10° WSW 10:56:31 71° NNW 10:59:47 10° ENE daylight
30 Aug - 12:30:27 10° WNW 12:33:17 27° N 12:36:08 10° NE daylight
30 Aug - 14:07:19 10° NW 14:10:16 31° NNE 14:13:14 10° ENE daylight
30 Aug - 15:43:39 10° WNW 15:46:54 75° SSW 15:50:08 10° SE daylight
30 Aug - 17:21:47 10° WSW 17:22:50 11° SW 17:23:44 10° SSW daylight
31 Aug - 09:59:42 10° SW 10:02:55 67° SSE 10:06:09 10° ENE daylight
31 Aug - 11:36:32 10° W 11:39:30 32° NNW 11:42:29 10° NE daylight
31 Aug - 13:13:39 10° NW 13:16:29 26° N 13:19:19 10° ENE daylight
31 Aug - 14:50:02 10° WNW 14:53:16 65° NNE 14:56:30 10° ESE daylight
31 Aug - 16:26:55 10° W 16:29:24 20° SW 16:31:51 10° S daylight
01 Sep - 09:06:21 10° SSW 09:09:21 36° SE 09:12:24 10° ENE daylight
01 Sep - 10:42:37 10° W 10:45:43 42° NNW 10:48:51 10° NE daylight
01 Sep - 12:19:51 10° WNW 12:22:39 25° N 12:25:25 10° ENE daylight
01 Sep - 13:56:25 10° NW 13:59:33 43° NNE 14:02:40 10° E daylight
01 Sep - 15:32:53 10° WNW 15:35:55 36° SW 15:38:55 10° SSE daylight
02 Sep - 08:13:23 10° S 08:15:50 20° SE 08:18:20 10° E daylight
02 Sep - 09:48:45 10° WSW 09:51:58 65° NNW 09:55:13 10° ENE daylight
02 Sep - 11:25:57 10° WNW 11:28:46 26° N 11:31:36 10° NE daylight
02 Sep - 13:02:45 10° NW 13:05:44 32° NNE 13:08:43 10° E daylight
02 Sep - 14:39:05 10° WNW 14:42:20 67° SSW 14:45:32 10° SE daylight
03 Sep - 07:21:23 10° SSE 07:22:21 11° SE 07:23:25 10° ESE daylight
03 Sep - 08:55:02 10° SW 08:58:16 75° SSE 09:01:31 10° ENE daylight
03 Sep - 10:31:56 10° WNW 10:34:53 31° NNW 10:37:50 10° NE daylight
03 Sep - 12:09:01 10° NW 12:11:52 27° N 12:14:43 10° ENE daylight
03 Sep - 13:45:22 10° WNW 13:48:37 72° NNE 13:51:51 10° ESE daylight
03 Sep - 15:22:23 10° W 15:24:42 18° SW 15:26:58 10° S daylight
04 Sep - 08:01:32 10° SW 08:04:36 41° SE 08:07:42 10° ENE daylight
04 Sep - 09:37:55 10° W 09:41:01 40° NNW 09:44:06 10° NE daylight
04 Sep - 11:15:09 10° WNW 11:17:56 25° N 11:20:43 10° ENE daylight
04 Sep - 12:51:40 10° NW 12:54:49 46° NNE 12:57:58 10° E daylight
04 Sep - 14:28:11 10° WNW 14:31:08 32° SW 14:34:04 10° SSE daylight
05 Sep - 07:08:23 10° SSW 07:10:59 23° SE 07:13:38 10° E daylight
05 Sep - 08:43:57 10° WSW 08:47:09 59° NNW 08:50:23 10° ENE daylight
05 Sep - 10:21:10 10° WNW 10:23:58 26° N 10:26:47 10° NE daylight
05 Sep - 11:57:55 10° NW 12:00:56 34° NNE 12:03:57 10° E daylight
05 Sep - 13:34:15 10° WNW 13:37:28 59° SSW 13:40:40 10° SE daylight
06 Sep - 06:15:58 10° SSE 06:17:24 13° SE 06:18:56 10° ESE daylight
06 Sep - 07:50:07 10° WSW 07:53:21 84° SSE 07:56:37 10° ENE daylight
06 Sep - 09:27:05 10° WNW 09:30:00 30° NNW 09:32:55 10° NE daylight
06 Sep - 11:04:06 10° NW 11:06:58 28° N 11:09:51 10° ENE daylight
06 Sep - 12:40:26 10° WNW 12:43:42 79° NNE 12:46:56 10° ESE daylight
06 Sep - 14:17:37 10° W 14:19:44 16° SW 14:21:47 10° S daylight
07 Sep - 06:56:28 10° SW 06:59:35 46° SE 07:02:44 10° ENE daylight
07 Sep - 08:32:57 10° W 08:36:02 37° NNW 08:39:07 10° NE daylight
07 Sep - 10:10:10 10° WNW 10:12:58 25° N 10:15:45 10° ENE daylight
07 Sep - 11:46:39 10° NW 11:49:50 49° NNE 11:53:00 10° E daylight
07 Sep - 13:23:13 10° WNW 13:26:05 29° SW 13:28:56 10° SSE daylight
08 Sep - 06:03:09 10° SSW 06:05:52 25° SE 06:08:38 10° E daylight
08 Sep - 07:38:53 10° WSW 07:42:05 54° NNW 07:45:17 10° NE daylight
08 Sep - 09:16:07 10° WNW 09:18:55 26° N 09:21:43 10° NE daylight
08 Sep - 10:52:49 10° NW 10:55:52 35° NNE 10:58:54 10° E daylight
08 Sep - 12:29:10 10° WNW 12:32:21 53° SW 12:35:31 10° SE daylight
